Tracking 20037 objects as of 20-Nov-2019
Live streaming from Space Station
objects crossing your sky now

COSMOS 1375 DEB

Track COSMOS 1375 DEB now!
10-day predictions


NORAD ID: 17794
Int'l Code: 1982-055AL
Perigee: 899.0 km
Apogee: 953.9 km
Inclination: 65.8 °
Period: 103.4 minutes
Semi major axis: 7297 km
RCS: 0.0068 m2 (small)
Launch date: June 6, 1982
Source: Commonwealth of Independent States (former USSR) (CIS)
Launch site: PLESETSK MISSILE AND SPACE COMPLEX (PKMTR)

Note: This is SATELLITE DEBRIS
aabbcc
Your satellite tracking list
Your tracking list is empty




NASA's NSSDC Master Catalog

Two Line Element Set (TLE):
1 17794U 82055AL  19324.20217666  .00000460  00000-0  41892-3 0  9994
2 17794  65.8211 293.2609 0037676  86.7438 273.7943 13.92663946717378
Source of the keplerian elements: AFSPC